Weather History for HEAX - January, 2014

Change the Weather History Date:

Saturday, January 25, 2014

  Actual Average Record
Temperature  
Mean Temperature 56 °F -  
Max Temperature 66 °F 63 °F 85 °F (2015)
Min Temperature 46 °F 48 °F 41 °F (2008)
Degree Days  
Heating Degree Days 9    
Growing Degree Days 6 (Base 50)    
Moisture  
Dew Point 53 °F    
Average Humidity 84    
Maximum Humidity 100    
Minimum Humidity 62    
Precipitation  
Precipitation 0.00 in 0.04 in - ()
Sea Level Pressure  
Sea Level Pressure 29.92 in    
Wind  
Wind Speed 3 mph ()    
Max Wind Speed 7 mph    
Max Gust Speed -    
Visibility 4.4 miles    
Events      
Averages and records for this station are not official NWS values.
T = Trace of Precipitation, MM = Missing Value Source: Averaged Metar Reports

Daily Weather History Graph

Daily Weather History Graph

Search for Another Location

Airport or City:

Trip Planner

Search our weather history database for the weather conditions in past years. The results will help you decide how hot, cold, wet, or windy it might be!

Date:

Astronomy

Jan. 25, 2014 Rise Set
Actual Time 6:56 AM EET 5:29 PM EET
Civil Twilight 6:30 AM EET 5:54 PM EET
Nautical Twilight 6:01 AM EET 6:24 PM EET
Astronomical Twilight 5:32 AM EET 6:52 PM EET
Moon 1:09 AM EET (1/25) 12:13 PM EET (1/25)
Length of Visible Light 11h 24m
Length of Day
10h 32m
Last Quarter, 37% of the Moon is Illuminated
Jan 25
Last Quarter
Jan 30
New
Feb 6
First Quarter
Feb 15
Full
Feb 22
Last Quarter

Hourly Weather History & Observations

Time (EET) Temp. Dew Point Humidity Pressure Visibility Wind Dir Wind Speed Gust Speed Precip Events Conditions
12:00 AM 55.4 °F 51.8 °F 88% 30.01 in - ESE 3.5 mph - N/A   Clear
1:00 AM 53.6 °F 50.0 °F 88% 30.01 in - ESE 2.3 mph - N/A   Clear
2:00 AM 51 °F 50 °F 93% 29.95 in 4 mi Calm Calm - -   Mist
2:00 AM 53.6 °F 50.0 °F 88% 29.98 in - SE 2.3 mph - N/A   Clear
3:00 AM 51.8 °F 50.0 °F 94% 29.98 in - SE 3.5 mph - N/A   Clear
4:00 AM 51.8 °F 50.0 °F 94% 29.95 in - SE 2.3 mph - N/A   Clear
5:00 AM 51.8 °F 50.0 °F 94% 29.95 in 3.7 mi Calm Calm - N/A   Unknown
6:00 AM 48.2 °F 48.2 °F 100% 29.95 in 3.7 mi Calm Calm - N/A   Unknown
7:00 AM 48.2 °F 48.2 °F 100% 29.95 in 1.9 mi Calm Calm - N/A   Mist
8:00 AM 47 °F 47 °F 99% 29.98 in 1 mi Calm Calm - -   Mist
8:00 AM 46.4 °F 46.4 °F 100% 29.95 in 0.7 mi Calm Calm - N/A   Mist
9:00 AM 51.8 °F 51.8 °F 100% 29.98 in 0.7 mi Calm Calm - N/A   Mist
10:00 AM 57.2 °F 53.6 °F 88% 29.98 in 1.9 mi SE 4.6 mph - N/A   Partly Cloudy
11:00 AM 62 °F 53 °F 65% 29.96 in 2 mi SE 6.9 mph - -   Mist
11:00 AM 60.8 °F 55.4 °F 82% 29.95 in 1.9 mi SE 6.9 mph - N/A   Scattered Clouds
12:00 PM 62.6 °F 53.6 °F 72% 29.92 in 3.7 mi SE 5.8 mph - N/A   Scattered Clouds
1:00 PM 64.4 °F 53.6 °F 68% 29.92 in 6.2 mi East 4.6 mph - N/A   Scattered Clouds
2:00 PM 65 °F 55 °F 62% 29.90 in 6 mi ENE 4.6 mph - -   Mostly Cloudy
2:00 PM 66.2 °F 55.4 °F 68% 29.89 in 6.2 mi ENE 4.6 mph - N/A   Scattered Clouds
3:00 PM 66.2 °F 53.6 °F 64% 29.86 in 6.2 mi ESE 5.8 mph - N/A   Scattered Clouds
4:00 PM 66.2 °F 55.4 °F 68% 29.86 in 6.2 mi SSE 4.6 mph - N/A   Scattered Clouds
5:00 PM 65 °F 56 °F 64% 29.86 in 6 mi SE 4.6 mph - -   Mostly Cloudy
5:00 PM 64.4 °F 55.4 °F 73% 29.86 in 6.2 mi SE 4.6 mph - N/A   Scattered Clouds
6:00 PM 62.6 °F 57.2 °F 82% 29.86 in 6.2 mi East 3.5 mph - N/A   Scattered Clouds
7:00 PM 59.0 °F 55.4 °F 88% 29.89 in 6.2 mi East 4.6 mph - N/A   Scattered Clouds
8:00 PM 60 °F 58 °F 89% 29.87 in 6 mi East 3.5 mph - -   Partly Cloudy
8:00 PM 60.8 °F 57.2 °F 88% 29.86 in 6.2 mi East 3.5 mph - N/A   Scattered Clouds
9:00 PM 59.0 °F 55.4 °F 88% 29.86 in 6.2 mi ENE 3.5 mph - N/A   Scattered Clouds
10:00 PM 59.0 °F 55.4 °F 88% 29.86 in - NNE 3.5 mph - N/A   Clear
11:00 PM 59 °F 56 °F 85% 29.87 in 6 mi ENE 4.6 mph - -  
11:00 PM 59.0 °F 55.4 °F 88% 29.86 in - ENE 4.6 mph - N/A   Clear